sat.trackr.live / text

‹ back to catalog

COSMOS 2604

NORAD 67678 · 2026-023E

PAYLOAD ACTIVE UNKNOWN

§ Identity

Operator
Country
CIS
Launch date
2026-02-05
Launch site
PLMSC
Launch vehicle
Mass (kg)
RCS (m²)

External: N2YO · Heavens-Above · Gunter

§ Orbital elements

Epoch: 2026-09-19T09:19:03.941184Z

Period
94.30 min
Inclination
96.6116°
Eccentricity
0.0019033
Mean motion
15.26998051 rev/d
Perigee alt
471.7 km
Apogee alt
497.9 km
Semi-major
6,862.9 km
B*
2.1999e-4
RAAN
313.0955°
Arg perigee
147.8863°
Mean anomaly
212.3542°
Rev number
3,437

§ Raw data

COSMOS 26041 67678U 26023E   26262.38824006  .00005797  00000+0  21999-3 0  99962 67678  96.6116 313.0955 0019033 147.8863 212.3542 15.26998051 34376

JSON: /api/v1/satellites/67678 · /tle

For live sub-satellite position, see the globe view (requires WebGL).

§ Visibility from observer

Set your observer location to see the next 7 days of passes ≥ 10°. The values pass through the URL so the page stays shareable.

No JS? Fill the form by hand. The geolocation button needs JavaScript.